TimeEST,TemperatureF,Dew PointF,Humidity,Sea Level PressureIn,VisibilityMPH,Wind Direction,Wind SpeedMPH,Gust SpeedMPH,PrecipitationIn,Events,Conditions,WindDirDegrees,DateUTC
12:15 AM,32.0,22.6,68,30.10,10.0,NNW,13.8,21.9,N/A,,Overcast,330,2013-01-05 05:15:00
12:34 AM,32.0,22.6,68,30.10,10.0,NNW,15.0,19.6,N/A,,Overcast,340,2013-01-05 05:34:00
12:55 AM,31.8,21.2,65,30.10,10.0,NNW,11.5,-,N/A,,Overcast,330,2013-01-05 05:55:00
1:14 AM,31.6,21.2,65,30.11,10.0,NNW,12.7,18.4,N/A,,Mostly Cloudy,330,2013-01-05 06:14:00
1:35 AM,31.6,21.2,65,30.11,10.0,NNW,8.1,-,N/A,,Mostly Cloudy,330,2013-01-05 06:35:00
1:54 AM,31.6,21.6,66,30.12,10.0,North,6.9,-,N/A,,Overcast,350,2013-01-05 06:54:00
2:15 AM,31.8,21.4,65,30.13,10.0,NW,10.4,-,N/A,,Overcast,320,2013-01-05 07:15:00
2:34 AM,32.0,21.4,65,30.14,10.0,NW,4.6,-,N/A,,Overcast,320,2013-01-05 07:34:00
2:55 AM,32.0,21.2,64,30.16,10.0,WNW,5.8,-,N/A,,Overcast,290,2013-01-05 07:55:00
3:14 AM,32.0,21.4,65,30.16,10.0,WNW,4.6,9.2,N/A,,Overcast,300,2013-01-05 08:14:00
3:35 AM,32.0,21.7,66,30.16,10.0,NW,3.5,-,N/A,,Overcast,310,2013-01-05 08:35:00
3:54 AM,32.0,21.4,65,30.17,10.0,WNW,4.6,-,N/A,,Overcast,290,2013-01-05 08:54:00
4:15 AM,32.0,20.8,63,30.17,10.0,Calm,Calm,-,N/A,,Overcast,0,2013-01-05 09:15:00
4:35 AM,31.3,22.1,69,30.18,10.0,Calm,Calm,-,N/A,,Overcast,0,2013-01-05 09:35:00
4:54 AM,32.0,22.3,67,30.17,10.0,Calm,Calm,-,N/A,,Overcast,0,2013-01-05 09:54:00
5:15 AM,32.0,21.7,66,30.17,10.0,Calm,Calm,-,N/A,,Overcast,0,2013-01-05 10:15:00
5:34 AM,31.8,22.1,67,30.17,10.0,Calm,Calm,-,N/A,,Overcast,0,2013-01-05 10:34:00
5:55 AM,31.1,21.7,68,30.18,10.0,South,3.5,-,N/A,,Overcast,190,2013-01-05 10:55:00
6:14 AM,30.6,22.1,71,30.18,10.0,Calm,Calm,-,N/A,,Overcast,0,2013-01-05 11:14:00
6:35 AM,31.3,21.9,68,30.18,10.0,Calm,Calm,-,N/A,,Overcast,0,2013-01-05 11:35:00
6:54 AM,30.7,21.9,70,30.18,10.0,SSE,3.5,-,N/A,,Overcast,160,2013-01-05 11:54:00
7:15 AM,29.8,22.1,73,30.18,10.0,South,3.5,-,N/A,,Overcast,190,2013-01-05 12:15:00
7:34 AM,29.8,21.7,72,30.19,10.0,SSW,4.6,-,N/A,,Overcast,200,2013-01-05 12:34:00
7:55 AM,29.7,21.7,72,30.18,10.0,South,3.5,-,N/A,,Overcast,180,2013-01-05 12:55:00
8:35 AM,27.5,21.2,77,30.17,10.0,SSE,3.5,-,N/A,,Scattered Clouds,150,2013-01-05 13:35:00
8:55 AM,27.0,20.5,77,30.18,10.0,South,4.6,-,N/A,,Clear,180,2013-01-05 13:55:00
9:14 AM,28.0,20.8,74,30.18,10.0,SSE,5.8,-,N/A,,Clear,150,2013-01-05 14:14:00
9:35 AM,28.0,20.8,74,30.18,10.0,SSE,5.8,-,N/A,,Clear,160,2013-01-05 14:35:00
9:55 AM,28.4,21.0,74,30.17,10.0,SSE,6.9,-,N/A,,Clear,150,2013-01-05 14:55:00
10:14 AM,28.9,21.2,73,30.17,10.0,SSE,6.9,-,N/A,,Clear,160,2013-01-05 15:14:00
10:55 AM,30.0,21.2,70,30.17,10.0,SE,6.9,-,N/A,,Clear,140,2013-01-05 15:55:00
11:15 AM,31.5,21.6,67,30.15,10.0,SE,10.4,-,N/A,,Clear,140,2013-01-05 16:15:00
11:54 AM,33.1,22.3,65,30.11,10.0,SSE,8.1,-,N/A,,Clear,150,2013-01-05 16:54:00
12:15 PM,33.1,22.8,66,30.10,10.0,SE,9.2,-,N/A,,Clear,140,2013-01-05 17:15:00
12:35 PM,32.9,23.2,67,30.08,10.0,SE,6.9,-,N/A,,Clear,140,2013-01-05 17:35:00
12:54 PM,33.3,23.4,67,30.07,10.0,SSE,8.1,-,N/A,,Clear,160,2013-01-05 17:54:00
1:15 PM,33.4,23.4,67,30.05,10.0,SSE,6.9,-,N/A,,Clear,160,2013-01-05 18:15:00
1:35 PM,33.8,23.7,67,30.03,10.0,South,5.8,-,N/A,,Clear,170,2013-01-05 18:35:00
1:54 PM,34.3,23.7,65,30.03,10.0,South,9.2,-,N/A,,Clear,180,2013-01-05 18:54:00
2:15 PM,35.1,24.3,65,30.03,10.0,SSW,9.2,-,N/A,,Clear,210,2013-01-05 19:15:00
2:34 PM,34.9,25.2,68,30.03,10.0,SSW,10.4,-,N/A,,Scattered Clouds,200,2013-01-05 19:34:00
2:55 PM,34.2,26.1,72,30.02,10.0,SSW,5.8,-,N/A,,Mostly Cloudy,200,2013-01-05 19:55:00
3:15 PM,33.8,26.1,73,30.01,10.0,South,6.9,10.4,N/A,,Overcast,190,2013-01-05 20:15:00
3:34 PM,33.3,26.4,76,30.01,10.0,SSW,10.4,-,N/A,,Overcast,210,2013-01-05 20:34:00
3:55 PM,32.7,26.4,78,30.01,10.0,South,8.1,-,N/A,,Overcast,180,2013-01-05 20:55:00
4:15 PM,32.2,26.4,79,30.00,10.0,SSE,5.8,-,N/A,,Overcast,150,2013-01-05 21:15:00
4:34 PM,32.0,26.1,79,29.99,10.0,SE,5.8,-,N/A,,Mostly Cloudy,140,2013-01-05 21:34:00
4:55 PM,32.0,25.7,78,29.97,10.0,SE,5.8,-,N/A,,Mostly Cloudy,130,2013-01-05 21:55:00
5:15 PM,31.8,25.7,78,29.97,10.0,SE,6.9,-,N/A,,Overcast,130,2013-01-05 22:15:00
5:55 PM,31.1,25.7,80,29.95,10.0,ESE,8.1,-,N/A,,Overcast,120,2013-01-05 22:55:00
6:14 PM,31.1,25.7,80,29.95,10.0,ESE,6.9,-,N/A,,Overcast,120,2013-01-05 23:14:00
6:35 PM,31.1,25.5,80,29.94,10.0,SE,5.8,-,N/A,,Overcast,130,2013-01-05 23:35:00
6:54 PM,31.1,25.5,80,29.92,10.0,SE,5.8,-,N/A,,Mostly Cloudy,130,2013-01-05 23:54:00
7:15 PM,31.1,25.7,80,29.92,10.0,SE,5.8,-,N/A,,Mostly Cloudy,130,2013-01-06 00:15:00
7:34 PM,31.1,25.9,81,29.91,10.0,SE,5.8,-,N/A,,Overcast,140,2013-01-06 00:34:00
7:55 PM,31.6,26.2,80,29.91,10.0,SE,6.9,-,N/A,,Overcast,140,2013-01-06 00:55:00
8:14 PM,32.0,26.8,81,29.90,10.0,SSE,8.1,-,N/A,,Overcast,160,2013-01-06 01:14:00
8:35 PM,32.0,27.3,83,29.89,10.0,SSE,6.9,-,N/A,,Mostly Cloudy,160,2013-01-06 01:35:00
8:54 PM,32.2,27.5,83,29.89,10.0,South,6.9,-,N/A,,Overcast,170,2013-01-06 01:54:00
9:15 PM,32.4,28.0,84,29.87,10.0,South,8.1,-,N/A,,Overcast,170,2013-01-06 02:15:00
9:35 PM,32.9,28.6,84,29.87,10.0,South,6.9,-,N/A,,Overcast,170,2013-01-06 02:35:00
9:55 PM,33.6,29.7,85,29.86,10.0,South,6.9,-,N/A,,Overcast,170,2013-01-06 02:55:00
10:15 PM,33.8,30.0,86,29.86,7.0,South,3.5,-,N/A,,Overcast,180,2013-01-06 03:15:00
10:35 PM,35.1,31.5,87,29.85,7.0,SW,11.5,17.3,N/A,,Overcast,220,2013-01-06 03:35:00
10:55 PM,35.8,31.3,84,29.85,7.0,WSW,12.7,19.6,N/A,,Overcast,240,2013-01-06 03:55:00
11:14 PM,35.8,30.0,80,29.85,10.0,WSW,16.1,19.6,N/A,,Overcast,240,2013-01-06 04:14:00
11:35 PM,35.6,29.7,79,29.84,10.0,WSW,13.8,20.7,N/A,,Overcast,240,2013-01-06 04:35:00
11:54 PM,35.6,29.8,80,29.84,10.0,WSW,13.8,-,N/A,,Overcast,250,2013-01-06 04:54:00